Norwegian Getaway — C6ZJ4 — position and weather

sailwx.info

Track history (hours):
 
Tides and Currents Weather Stations Pressure Air Temp Water Temp Dewpoint Dewpoint Depression Visibility Wind Speed Wind Dir Waves Ship Positions

Norwegian Getaway

Last reported at 2017-Apr-28 22:25 UTC. Time now 2017-Apr-29 03:31 UTC.
Position N 20°36' W 086°56'.

Length 326 m; draft 8.9 m.

Type: Passenger vessel. MMSI: 311050900.

Date/timePositionNaut miles runAvg speedWind from/ knotsBaromVisibWave heightAir tempDewpointWater temp
2017-Apr-28 22:25N 20°36' W 086°56'512.1
2017-Apr-28 22:00N 20°31' W 086°57'0 0.1
2017-Apr-28 21:30N 20°31' W 086°57'0 0.0
2017-Apr-28 20:59N 20°31' W 086°57'0 0.0
2017-Apr-28 20:29N 20°31' W 086°57'0 0.0
2017-Apr-28 19:59N 20°31' W 086°57'0 0.0
2017-Apr-28 19:29N 20°31' W 086°57'0 0.0
2017-Apr-28 19:00N 20°31' W 086°57'0 0.0
2017-Apr-28 18:30N 20°31' W 086°57'0 0.0
2017-Apr-28 17:59N 20°31' W 086°57'0 0.0
2017-Apr-28 17:30N 20°31' W 086°57'0 0.0
2017-Apr-28 17:00N 20°31' W 086°57'0 0.0
2017-Apr-28 16:30N 20°31' W 086°57'0 0.0
2017-Apr-28 16:00N 20°31' W 086°57'0 0.0
2017-Apr-28 15:30N 20°31' W 086°57'0 0.0
2017-Apr-28 14:59N 20°31' W 086°57'0 0.0
2017-Apr-28 14:00N 20°31' W 086°57'0 0.0
2017-Apr-28 13:30N 20°31' W 086°57'0 0.0
2017-Apr-28 12:59N 20°31' W 086°57'0 0.0
2017-Apr-28 12:31N 20°31' W 086°57'2 4.5
2017-Apr-28 12:00N 20°30' W 086°59'5 9.5
2017-Apr-28 11:30N 20°26' W 087°03'  
2017-Apr-23 23:03N 25°18' W 079°55'215.7
2017-Apr-23 22:57N 25°19' W 079°55'915.7
2017-Apr-23 22:21N 25°29' W 079°56'915.5
2017-Apr-23 21:46N 25°38' W 079°58'416.0
2017-Apr-23 21:30N 25°41' W 080°00'612.2
2017-Apr-23 21:00N 25°46' W 080°05'4 9.0
2017-Apr-23 20:30N 25°46' W 080°10'0 0.6
2017-Apr-23 19:58N 25°46' W 080°10'0 0.0
2017-Apr-23 19:28N 25°46' W 080°10'0 0.0
2017-Apr-23 18:58N 25°46' W 080°10'0 0.0
2017-Apr-23 18:28N 25°46' W 080°10'0 0.0
2017-Apr-23 17:58N 25°46' W 080°10'0 0.0
2017-Apr-23 17:28N 25°46' W 080°10'0 0.0
2017-Apr-23 16:58N 25°46' W 080°10'0 0.0
2017-Apr-23 16:27N 25°46' W 080°10'0 0.0
2017-Apr-23 16:00N 25°46' W 080°10'0 0.0
2017-Apr-23 15:30N 25°46' W 080°10'0 0.0
2017-Apr-23 15:00N 25°46' W 080°10'0 0.0
2017-Apr-23 14:00N 25°46' W 080°10'0 0.0
2017-Apr-23 13:27N 25°46' W 080°10'0 0.0
2017-Apr-23 13:00N 25°46' W 080°10'0 0.0
2017-Apr-23 12:27N 25°46' W 080°10'0 0.0
2017-Apr-23 12:00N 25°46' W 080°10'0 0.0
2017-Apr-23 11:30N 25°46' W 080°10'0 0.0
2017-Apr-23 10:57N 25°46' W 080°10'0 0.0
2017-Apr-23 10:30N 25°46' W 080°10'1 2.3
2017-Apr-23 10:00N 25°47' W 080°11'3 5.9
2017-Apr-23 09:30N 25°46' W 080°08'510.5
2017-Apr-23 09:00N 25°46' W 080°02'510.6
2017-Apr-23 08:31N 25°43' W 079°57'815.5
2017-Apr-23 08:01N 25°39' W 079°50'815.5
2017-Apr-23 07:31N 25°34' W 079°43'815.0
2017-Apr-23 07:01N 25°27' W 079°40'31715.1
2017-Apr-22 10:00N 22°42' W 084°36'18516.3 090 / 141004.010.8 24.522.227.5
2017-Apr-21 22:40N 20°33' W 086°58'210.4
2017-Apr-21 22:30N 20°31' W 086°58'0 0.5
2017-Apr-21 21:58N 20°31' W 086°57'0 0.0
2017-Apr-21 21:28N 20°31' W 086°57'0 0.0
2017-Apr-21 20:58N 20°31' W 086°57'0 0.0
2017-Apr-21 20:28N 20°31' W 086°57'0 0.0
2017-Apr-21 19:58N 20°31' W 086°57'0 0.0
2017-Apr-21 19:28N 20°31' W 086°57'0 0.0
2017-Apr-21 18:58N 20°31' W 086°57'0 0.0
2017-Apr-21 18:28N 20°31' W 086°57'0 0.0
2017-Apr-21 17:58N 20°31' W 086°57'0 0.0
2017-Apr-21 17:28N 20°31' W 086°57'0 0.0
2017-Apr-21 16:58N 20°31' W 086°57'0 0.0
2017-Apr-21 16:28N 20°31' W 086°57'0 0.0
2017-Apr-21 15:58N 20°31' W 086°57'0 0.0
2017-Apr-21 15:25N 20°31' W 086°57'0 0.0
2017-Apr-21 14:58N 20°31' W 086°57'0 0.0
2017-Apr-21 14:28N 20°31' W 086°57'0 0.0
2017-Apr-21 13:28N 20°31' W 086°57'0 0.0
2017-Apr-21 12:58N 20°31' W 086°57'0 0.1
2017-Apr-21 12:30N 20°31' W 086°57'2 3.0
2017-Apr-21 12:01N 20°30' W 086°59'4 7.4
2017-Apr-21 11:30N 20°28' W 087°02'5 9.3
2017-Apr-21 10:56N 20°23' W 087°04'  
Track history (hours):
 
Tides and Currents Weather Stations Pressure Air Temp Water Temp Dewpoint Dewpoint Depression Visibility Wind Speed Wind Dir Waves Ship Positions

Norwegian Getaway

Last reported at 2017-Apr-28 22:25 UTC. Time now 2017-Apr-29 03:31 UTC.
Position N 20°36' W 086°56'.

Length 326 m; draft 8.9 m.

Type: Passenger vessel. MMSI: 311050900.

Date/timePositionNaut miles runAvg speedWind from/ knotsBaromVisibWave heightAir tempDewpointWater temp
2017-Apr-28 22:25N 20°36' W 086°56'512.1
2017-Apr-28 22:00N 20°31' W 086°57'0 0.1
2017-Apr-28 21:30N 20°31' W 086°57'0 0.0
2017-Apr-28 20:59N 20°31' W 086°57'0 0.0
2017-Apr-28 20:29N 20°31' W 086°57'0 0.0
2017-Apr-28 19:59N 20°31' W 086°57'0 0.0
2017-Apr-28 19:29N 20°31' W 086°57'0 0.0
2017-Apr-28 19:00N 20°31' W 086°57'0 0.0
2017-Apr-28 18:30N 20°31' W 086°57'0 0.0
2017-Apr-28 17:59N 20°31' W 086°57'0 0.0
2017-Apr-28 17:30N 20°31' W 086°57'0 0.0
2017-Apr-28 17:00N 20°31' W 086°57'0 0.0
2017-Apr-28 16:30N 20°31' W 086°57'0 0.0
2017-Apr-28 16:00N 20°31' W 086°57'0 0.0
2017-Apr-28 15:30N 20°31' W 086°57'0 0.0
2017-Apr-28 14:59N 20°31' W 086°57'0 0.0
2017-Apr-28 14:00N 20°31' W 086°57'0 0.0
2017-Apr-28 13:30N 20°31' W 086°57'0 0.0
2017-Apr-28 12:59N 20°31' W 086°57'0 0.0
2017-Apr-28 12:31N 20°31' W 086°57'2 4.5
2017-Apr-28 12:00N 20°30' W 086°59'5 9.5
2017-Apr-28 11:30N 20°26' W 087°03'  
2017-Apr-23 23:03N 25°18' W 079°55'215.7
2017-Apr-23 22:57N 25°19' W 079°55'915.7
2017-Apr-23 22:21N 25°29' W 079°56'915.5
2017-Apr-23 21:46N 25°38' W 079°58'416.0
2017-Apr-23 21:30N 25°41' W 080°00'612.2
2017-Apr-23 21:00N 25°46' W 080°05'4 9.0
2017-Apr-23 20:30N 25°46' W 080°10'0 0.6
2017-Apr-23 19:58N 25°46' W 080°10'0 0.0
2017-Apr-23 19:28N 25°46' W 080°10'0 0.0
2017-Apr-23 18:58N 25°46' W 080°10'0 0.0
2017-Apr-23 18:28N 25°46' W 080°10'0 0.0
2017-Apr-23 17:58N 25°46' W 080°10'0 0.0
2017-Apr-23 17:28N 25°46' W 080°10'0 0.0
2017-Apr-23 16:58N 25°46' W 080°10'0 0.0
2017-Apr-23 16:27N 25°46' W 080°10'0 0.0
2017-Apr-23 16:00N 25°46' W 080°10'0 0.0
2017-Apr-23 15:30N 25°46' W 080°10'0 0.0
2017-Apr-23 15:00N 25°46' W 080°10'0 0.0
2017-Apr-23 14:00N 25°46' W 080°10'0 0.0
2017-Apr-23 13:27N 25°46' W 080°10'0 0.0
2017-Apr-23 13:00N 25°46' W 080°10'0 0.0
2017-Apr-23 12:27N 25°46' W 080°10'0 0.0
2017-Apr-23 12:00N 25°46' W 080°10'0 0.0
2017-Apr-23 11:30N 25°46' W 080°10'0 0.0
2017-Apr-23 10:57N 25°46' W 080°10'0 0.0
2017-Apr-23 10:30N 25°46' W 080°10'1 2.3
2017-Apr-23 10:00N 25°47' W 080°11'3 5.9
2017-Apr-23 09:30N 25°46' W 080°08'510.5
2017-Apr-23 09:00N 25°46' W 080°02'510.6
2017-Apr-23 08:31N 25°43' W 079°57'815.5
2017-Apr-23 08:01N 25°39' W 079°50'815.5
2017-Apr-23 07:31N 25°34' W 079°43'815.0
2017-Apr-23 07:01N 25°27' W 079°40'31715.1
2017-Apr-22 10:00N 22°42' W 084°36'18516.3 090 / 141004.010.8 24.522.227.5
2017-Apr-21 22:40N 20°33' W 086°58'210.4
2017-Apr-21 22:30N 20°31' W 086°58'0 0.5
2017-Apr-21 21:58N 20°31' W 086°57'0 0.0
2017-Apr-21 21:28N 20°31' W 086°57'0 0.0
2017-Apr-21 20:58N 20°31' W 086°57'0 0.0
2017-Apr-21 20:28N 20°31' W 086°57'0 0.0
2017-Apr-21 19:58N 20°31' W 086°57'0 0.0
2017-Apr-21 19:28N 20°31' W 086°57'0 0.0
2017-Apr-21 18:58N 20°31' W 086°57'0 0.0
2017-Apr-21 18:28N 20°31' W 086°57'0 0.0
2017-Apr-21 17:58N 20°31' W 086°57'0 0.0
2017-Apr-21 17:28N 20°31' W 086°57'0 0.0
2017-Apr-21 16:58N 20°31' W 086°57'0 0.0
2017-Apr-21 16:28N 20°31' W 086°57'0 0.0
2017-Apr-21 15:58N 20°31' W 086°57'0 0.0
2017-Apr-21 15:25N 20°31' W 086°57'0 0.0
2017-Apr-21 14:58N 20°31' W 086°57'0 0.0
2017-Apr-21 14:28N 20°31' W 086°57'0 0.0
2017-Apr-21 13:28N 20°31' W 086°57'0 0.0
2017-Apr-21 12:58N 20°31' W 086°57'0 0.1
2017-Apr-21 12:30N 20°31' W 086°57'2 3.0
2017-Apr-21 12:01N 20°30' W 086°59'4 7.4
2017-Apr-21 11:30N 20°28' W 087°02'5 9.3
2017-Apr-21 10:56N 20°23' W 087°04'  

Dump ship's entire track history